Regional Weather Roundup
Issued by NWS

Home | Current Version | Previous Version | Text Only | Print | Product List | Glossary On
Versions: 1 2 3 4 5 6 7 8 9 10 11 12 13 14 15 16 17 18 19 20 21 22 23 24 25 26 27 28 29 30 31 32 33 34 35 36 37 38 39 40 41 42 43 44 45 46 47 48 49 50
000
ASCA42 TJSJ 300510
RWRPR
PUERTO RICO/U.S. VIRGIN ISLANDS HOURLY WEATHER ROUNDUP
NATIONAL WEATHER SERVICE SAN JUAN PR
100 AM AST MON MAY 30 2016

PRZ001-004-300600-
PUERTO RICO

CITY           SKY/WX    TMP DP  RH WIND       PRES   REMARKS
SAN JUAN LMM   PTCLDY    75  75 100 CALM      29.99F
PONCE          PTCLDY    79  73  83 CALM      29.97F
AGUADILLA      CLEAR     73  72  94 CALM      30.00F
CEIBA          PTCLDY    75  75 100 SW6       30.02F
$$

PRZ006-007-300600-
U.S. VIRGIN ISLANDS

CITY           SKY/WX    TMP DP  RH WIND       PRES   REMARKS
CHARLOTTE AMA  CLEAR     82  75  78 E5        29.98F
CHRISTIANSTED  PTCLDY    79  75  89 N5        30.00F
$$

HOURLY WEATHER ROUNDUP FOR THE NEWS MEDIA

CITY           SKY/WX    TMP DP  RH WIND       PRES   REMARKS
ORLANDO        CLOUDY    76  72  87 SW8       30.03F
NEW YORK       FOG       65  64  97 S14       30.06F VSB 1/2
NEWARK         RAIN      74  70  87 S7        30.03F
CHICAGO        CLEAR     67  58  72 W5        30.00S
HARTFORD       CLOUDY    57  56  96 NE3       30.10F FOG
BOSTON         DRIZZLE   53  52  96 CALM      30.13F FOG
DALLAS         CLOUDY    74  60  61 S6        30.05R
PHILADELPHIA   RAIN      71  68  90 N3        30.04  FOG
LOS ANGELES    PTCLDY    60  54  80 W9        30.01R
WASHINGTON DC  CLOUDY    68  63  84 NW6       30.05F


USA.gov is the U.S. government's official web portal to all federal, state and local government web resources and services.